Regional Weather Roundup
Issued by NWS Portland, ME

Current Version | Previous Version | Text Only | Print | Product List | Glossary Off
Versions: 1 2 3 4 5 6 7 8 9 10 11 12 13 14 15 16 17 18 19 20 21 22 23 24 25 26 27 28 29 30 31 32 33 34 35 36 37 38 39 40 41 42 43 44 45 46 47 48 49 50
000 ASUS41 KGYX 220910 RWRGYX WEATHER ROUNDUP FOR MAINE AND NEW HAMPSHIRE NATIONAL WEATHER SERVICE GRAY ME 500 AM EDT SUN OCT 22 2017 MEZ002-005-006-010-012-015-018-020-021-024-026-027-029-221000- MAINE CITY SKY/WX TMP DP RH WIND PRES REMARKS PORTLAND CLEAR 47 45 93 VRB5 30.35R SANFORD PTCLDY 41 41 100 CALM 30.35R BAR HARBOR PTCLDY 50 44 80 NE6 30.39R WISCASSET CLEAR 46 44 93 CALM 30.37R ROCKLAND CLOUDY 52 51 97 NE8 30.37R FRYEBURG NOT AVBL LEWISTONAUBURN PTCLDY 44 43 96 CALM 30.36R AUGUSTA CLEAR 47 45 93 CALM 30.37R WATERVILLE PTCLDY 47 43 86 NE6 30.35R BANGOR MOCLDY 47 39 74 N6 30.39R GREENVILLE N/A 46 38 73 S3 30.37R MILLINOCKET MOCLDY 46 30 53 CALM 30.43R HOULTON CLOUDY 39 33 79 N5 30.44R PRESQUE ISLE MOCLDY 32 31 96 CALM 30.46R FRENCHVILLE PTCLDY 34 23 64 N5 30.45R CARIBOU CLOUDY 34 27 75 N6 30.45R $$ NHZ002-005-008-009-011-012-014-221000- NEW HAMPSHIRE CITY SKY/WX TMP DP RH WIND PRES REMARKS PORTSMOUTH PTCLDY 51 48 91 CALM 30.33R ROCHESTER MOCLDY 50 45 83 NW6 30.33S NASHUA MOCLDY 48 46 93 CALM 30.35S MANCHESTER MOCLDY 51 48 89 CALM 30.33S CONCORD CLOUDY 44 42 93 CALM 30.36R LACONIA PTCLDY 47 45 93 W3 30.35S PLYMOUTH FOG 39 39 98 CALM 30.37R VSB 3/4 BERLIN PTCLDY 42 40 92 CALM 30.37R WHITEFIELD PTCLDY 39 37 92 CALM 30.37R JAFFREY CLOUDY 44 44 100 CALM 30.37S KEENE CLOUDY 40 39 97 CALM 30.38S LEBANON PTCLDY 43 41 93 CALM 30.37R FOG MT WASHINGTON PTCLDY 50 19 29 W7 N/A $$ VTZ005-007-008-221000- VERMONT CITY SKY/WX TMP DP RH WIND PRES REMARKS ST JOHNSBURY N/A 43 42 97 MISG 30.36R BURLINGTON CLEAR 49 46 90 CALM 30.34R $$ MAZ007-012-024-CTZ003-RIZ002-NYZ038-NYZ072-221000- SOUTHERN NEW ENGLAND AND NY CITY SKY/WX TMP DP RH WIND PRES REMARKS BOSTON CLOUDY 56 48 74 CALM 30.34S WORCESTER PTCLDY 57 39 51 NW8 30.36R NANTUCKET CLEAR 57 57 100 SW8 30.36R PROVIDENCE CLOUDY 51 49 92 CALM 30.35S HARTFORD CLOUDY 45 43 93 W3 30.36R ALBANY PTCLDY 44 41 89 CALM 30.37R NEW YORK CITY CLEAR 61 49 64 CALM 30.36R $$ ANZ081-ANZ082-ANZ150-NHZ014-MEZ023>029-221000- COASTAL MARINE OBSERVATIONS STATION/POSITION TIME TEMP WIND PRES WAVE AIR SEA DIR/SP/G HT/PER (UTC) (F) (DEG/KT/KT) (MB) (FT/S) MOUNT DESERT ROC 0900 55 40/ 11/ 12 1028.4R MATINICUS ROCK 0800 55 50/ 9/ 10 1027.2R ISLE OF SHOALS 0800 59 310/ 6/ 6 1026.8R JEFFREYS LEDGE 0806 58 N/A 2/ 8 GEORGES BANK BUO 0750 58 58 1028.3 2/ 9 $$ .............KEY.............. WCI - WIND CHILL TC - TEMPERATURE IN CELSIUS VSB - VISIBILITY IN MILES HX - HEAT INDEX FAIR- INDICATES FEW OR NO CLOUDS BELOW 12,000 FT, WITH NO SIGNIFICANT WEATHER AND/OR OBSTRUCTIONS TO VISIBILITY.

USA.gov is the U.S. government's official web portal to all federal, state and local government web resources and services.